Location: Briis
(48.6240°N, 2.1211°E)
Time: 10:15:13
(UTC+00:00)

Cosmos 1689 Rocket - Pass Details

Date: 25 September 2020
Orbit: 362 x 378 km, 97.5° (Epoch: 25 October)

Event Time Altitude Azimuth Distance (km) Brightness Sun altitude
Rises 04:10:26 0° 141° (SE) 2,246 6.2 -15.9°
Reaches altitude 10° 04:12:33 10° 128° (SE) 1,401 5.4 -15.5°
Maximum altitude 04:15:07 26° 69° (ENE) 792 4.5 -15.1°
Drops below altitude 10° 04:17:37 11° 11° (N) 1,382 5.2 -14.7°
Sets 04:19:51 0° 357° (N) 2,277 6.1 -14.4°
